Tracking 19792 objects as of 16-Jul-2019
HD Live streaming from Space Station
objects crossing your sky now

USA 43

Track USA 43 now!
USA 43 is classified as:


NORAD ID: 20202
Int'l Code: 1989-069A
Perigee: 36,211.5 km
Apogee: 36,320.3 km
Inclination: 15.2 °
Period: 1,460.3 minutes
Semi major axis: 42636 km
RCS: Unknown
Launch date: September 4, 1989
Source: United States (US)
Launch site: AIR FORCE EASTERN TEST RANGE (AFETR)
aabbcc
Your satellite tracking list
Your tracking list is empty




NASA's NSSDC Master Catalog

Two Line Element Set (TLE):
1 20202U 89069A   19196.58111397 -.00000063  00000-0  00000+0 0  9998
2 20202  15.1535 356.2385 0012765 210.7040 149.2399  0.98610851   864
Source of the keplerian elements: McCants